Flag for U.S.A. Weather past 2 weeks in Tallahassee, Florida, U.S.A.

Now
77 °F

Passing clouds.


Feels Like: 79 °F
Forecast: 68 / 80 °F
Wind: 6 mph from West

Location: Tallahassee Regional Airport

Current Time: Apr 26, 2015 at 10:16:12 PM

Latest Report: Apr 26, 2015 at 9:53 PM


Visibility: 10 mi

Pressure: 29.72 "Hg

Humidity: 71%

Dew point: 67 °F

Location of TallahasseeLocation

Historic Weather in Tallahassee — Graph

°F

Tallahassee temperature yesterday

Maximum temperature yesterday: 86 °F (at 4:53 PM)
Minimum temperature yesterday: 66 °F (at 1:53 AM)
Average temperature yesterday: 75 °F

Past Weeks' High & Low Weather Summary

 TemperatureHumidityPressure
High90 °F (Apr 23, 3:53 PM)97% (Apr 18, 3:53 AM)30.15 "Hg (Apr 18, 3:53 AM)
Low56 °F (Apr 22, 5:53 AM)29% (Apr 21, 6:53 PM)29.68 "Hg (Apr 26, 6:53 PM)
Average74 °F78%29.97 "Hg
* Reported Apr 11 8:53 PM — Apr 26 8:53 PM, Tallahassee, Weather by CustomWeather, © 2015

Note: Actual official high and low records may vary slightly from our data, if they occured in-between our weather recording intervals... More about our weather records

Advertising

Tallahassee weather history for previous 24 hours

 ConditionsComfort  
Time TempWeatherWind HumidityBarometerVisibility
8:53 PM
Sun, Apr 26
79 °FPartly sunny.9 mph62%29.71 "Hg10 mi
7:53 PM82 °FBroken clouds.10 mph60%29.70 "Hg10 mi
6:53 PM84 °FPartly sunny.10 mph55%29.68 "Hg10 mi
5:53 PM88 °FPartly sunny.10 mph39%29.69 "Hg10 mi
4:53 PM90 °FScattered clouds.14 mph41%29.69 "Hg10 mi
3:53 PM89 °FScattered clouds.9 mph42%29.70 "Hg10 mi
2:53 PM87 °FPartly sunny.5 mph45%29.71 "Hg10 mi
1:53 PM86 °FPassing clouds.9 mph49%29.74 "Hg10 mi
12:53 PM85 °FPassing clouds.7 mph55%29.75 "Hg10 mi
11:53 AM83 °FScattered clouds.12 mph61%29.78 "Hg10 mi
10:53 AM79 °FPartly sunny.8 mph69%29.79 "Hg10 mi
9:53 AM76 °FPartly sunny.9 mph77%29.78 "Hg10 mi
8:53 AM74 °FPassing clouds.7 mph85%29.76 "Hg10 mi
7:53 AM70 °FPassing clouds.No wind90%29.76 "Hg10 mi
6:53 AM68 °FLight fog.No wind93%29.74 "Hg7 mi
5:53 AM67 °FFog.5 mph93%29.73 "Hg5 mi
4:53 AM69 °FFog.No wind93%29.73 "Hg6 mi
3:59 AM69 °FFog.No wind93%29.74 "Hg3 mi
2:53 AM71 °FFog.No wind90%29.73 "Hg4 mi
1:53 AM71 °FFog.5 mph93%29.73 "Hg6 mi
1:00 AM70 °FFog.3 mph93%29.75 "Hg1 mi
11:53 PM
Sat, Apr 25
72 °FClear.No wind91%29.72 "Hg9 mi
10:53 PM73 °FPassing clouds.No wind90%29.74 "Hg10 mi
Weather by CustomWeather, © 2015

See weather overviewHow to use our weather pages